User: anonymous   Login
Location: Steinbach
(49.5170°N, 96.6830°W)
Time: 09:40:39
(UTC-06:00)
Language:

NOSS 3-4 (A) - Orbit

View from above orbital plane
View from above orbital plane
View from above satellite
View from above satellite

Ground track
Ground track

The orbit data is extracted from the following two-line orbital elements,

1 31701U 07027A   14350.76594962 0.00000000  00000-0  00000-0 0    02
2 31701  63.4030 251.1921 0116000  36.7253 323.2747 13.40663471    08
Epoch (UTC): 16 December 2014 18:22:58
Eccentricity: 0.0116000
inclination: 63.4030°
perigee height: 1020 km
apogee height: 1193 km
right ascension of ascending node: 251.1921°
argument of perigee: 36.7253°
revolutions per day: 13.40663471
mean anomaly at epoch: 323.2747°
orbit number at epoch: 0

The dashed part of the orbit path shows where the satellite is in the earth's shadow,  

DLR